Voltar ao catálogo

STARLINK-2422

AtivoComunicaçõesVLEO
NORAD 47832·PAYLOAD·🇺🇸 United States

Lançado Mar 11, 2021 de Cape Canaveral Space Force Station

Loading…

Próximas Passagens (próximas 24 horas)

TLE

AtualizadoSource: CelesTrak SupGP

Época: Sep 15, 2026, 01:05 UTC

1 47832C 21018AX  26258.04562500  .00021504  00000+0  69151-3 0  2585
2 47832  53.1576  84.4928 0001169  81.1919 101.0551 15.31691011    16

Acompanhe STARLINK-2422 em tempo real com AllMySat

Download on the App Store